Location: Bernadets
(43.3537°N, 0.3167°E)
Time: 13:38:07
(UTC+00:00)

NOSS 2-3 (D) - Pass Details

Date: 24 October 2021
Orbit: 538 x 1672 km, 63.3° (Epoch: 25 November)

Event Time Altitude Azimuth Distance (km) Brightness Sun altitude
Rises 18:07:41 0° 216° (SW) 2,678 7.5 -12.7°
Reaches altitude 10° 18:09:46 10° 216° (SW) 1,803 6.5 -13.1°
Maximum altitude 18:13:41 87° 301° (WNW) 585 3.4 -13.8°
Drops below altitude 10° 18:18:14 10° 36° (NE) 2,079 5.9 -14.6°
Enters shadow 18:18:18 10° 36° (NE) 2,104 5.9 -14.6°
